Regional Weather Roundup
Issued by NWS Goodland, KS

Home | Current Version | Previous Version | Graphics & Text | Print | Product List | Glossary On
Versions: 1 2 3 4 5 6 7 8 9 10 11 12 13 14 15 16 17 18 19 20 21 22 23 24 25 26 27 28 29 30 31 32 33 34 35 36 37 38 39 40 41 42 43 44 45 46 47 48 49 50
000
ASUS43 KGLD 311208
RWRGLD

GOODLAND FORECAST AREA HOURLY WEATHER ROUNDUP
NATIONAL WEATHER SERVICE GOODLAND KS
500 AM MST SAT JAN 31 2015

...OFFICIAL OBSERVATIONS...

CITY           SKY/WX    TMP DP  RH WIND       PRES   REMARKS
GOODLAND KS    CLOUDY    34  33  96 S8        29.91F FOG
HILL CITY KS   CLOUDY    33  31  92 S8        30.03F
IMPERIAL NEB   LGT SNOW  33  31  92 E6        29.95F FOG
MCCOOK NEB     CLOUDY    34  32  92 SE7       29.99F
AKRON CO       CLOUDY    30  29  96 N6        29.90F
BURLINGTON CO  CLOUDY    34  32  92 SW7       29.90S
LIMON CO       CLOUDY    27  25  92 NW9       29.90F
$$

...UNOFFICIAL OBSERVATIONS...

CITY           SKY/WX    TMP DP  RH WIND       PRES   REMARKS
GOVE KS          N/A     36  32  85 MISG        N/A
SHARON SPRINGS   N/A     34  33  96 S9          N/A
KIT CARSON CO    N/A     33  30  90 MISG        N/A
YUMA CO          N/A     33  30  90 NE6         N/A
$$



USA.gov is the U.S. government's official web portal to all federal, state and local government web resources and services.